GLOBALSTAR M049

Satellite information

Favourite Embed

Satellite Type and Status

PAYLOADIN ORBIT

Key statistics

Satellite GLOBALSTAR M049 at a glance.

Uptime

9588

Days in orbit

Revolutions

≈ 11.1

Per day

Orbit

MEO

Medium Earth Orbit

Inclination

52.0

Latest

Satellite identification and parameters

Extended collection of information and parameters for GLOBALSTAR M049.

Object identification

Identified? True

Debris? False

Object name: GLOBALSTAR M049

International designator: 1999-031B

Object number (NORAD): 25771

Object ID (CCSDS): 25771

Country: GLOBALSTAR (GLOB)

Current information (Y/N): Y

RCS size: LARGE

Orbital parameters

Period: 129.483 minutes

Inclination: 51.9916 deg

SMA: 8478.154 km

Apoapsis: 2102.918 km

Periapsis: 2097.12 km

RAAN: 5.0424 deg

Eccentricy: 0.00034195

Argument of periapsis: 145.9767 deg

Mean anomaly: 214.1249 deg

Mean motion: 11.12117918 rev/day

Mean motion (dot): 0.00000043 rev/day2

B* drag term: 0.0037704547 1/REarth

Two-line elements (TLE)

Creation date: Sept. 8, 2025, 6:18 p.m.

Reference frame: TEME

Reference center: EARTH

Epoch: Sept. 8, 2025, 1:54 p.m. UTC

TLE line 0: 0 GLOBALSTAR M049

TLE line 1: 1 25771U 99031B 25251.57935270 .00000043 00000-0 37705-2 0 9998

TLE line 2: 2 25771 51.9916 5.0424 0003419 145.9767 214.1249 11.12117918126707

Live tracking on map

Real-time ground track for satellite GLOBALSTAR M049.

In-orbit conjunctions

There are no conjunctions computed for GLOBALSTAR M049, at the moment. Check back to stay up to date, as we update our databases every day.

Go to all conjunctions

Associated space launch

The Globalstar global mobile communications network offers global, digital real time voice, data and fax via a constellation of 48 minisatellites. The constellation operates in a 1410 km orbit inclined at 52 degrees, and will also have 8 spares. The satellites were built by Space Systems Loral and Alenia Aerospazio in Rome, Italy.

GLOBALSTAR M049 was lifted into orbit during the mission ‘Delta 7420-10C | Globalstar 25,47,49,52’, on board a Delta 7420-10C space rocket.

The launch took place on June 10, 1999, 1:48 p.m. from Space Launch Complex 17B.

For more information about the launch, click the button.

Launch to space Delta 7420-10C | Globalstar 25,47,49,52
Delta 7420-10C | Globalstar 25,47,49,52

Agency: N/A

Status: Launch Successful

Launch date: June 10, 1999, 1:48 p.m. UTC

Rocket: Delta 7420-10C

Launch pad: Space Launch Complex 17B

Location: Cape Canaveral SFS, FL, USA

...

Latest news about this satellite

There are no fresh news available about this satellite. Check back as we update our databases every day.


Newsletter sign-up

Weekly statistics, charts and insights to help you stay on top of the space industry.